Volver al catálogo

STARLINK-3845

ActivoComunicacionesVLEO
NORAD 52541·PAYLOAD·🇺🇸 United States

Lanzado May 13, 2022 desde Vandenberg Space Force Base

Loading…

Próximos Pases (próximas 24 horas)

TLE

ActualizadoSource: CelesTrak SupGP

Época: Sep 15, 2026, 02:34 UTC

1 52541C 22051J   26258.10743056  .00048650  00000+0  13919-2 0  2581
2 52541  53.1584 351.3004 0001222  90.6278 285.9467 15.35375123    17

Sigue STARLINK-3845 en tiempo real con AllMySat

Download on the App Store